EW1895 Weather Reports


Display with metric or nautical units.
time (UTC)temp
F
wind
direction
speed
MPH
gust
MPH
rain 1hr
in
rain 24hr
in
rain mn
in
humidity
%
barometer
mb
20260902074518 74 340 0.0 0.0 0.00 0.00 0.00 90 1016.6
20260902073016 75 340 0.0 0.0 0.00 0.00 0.00 88 1016.7
20260902071516 75 340 0.0 0.0 0.00 0.00 0.00 88 1016.7
20260902070015 76 340 0.0 0.0 0.00 0.00 0.00 88 1016.6
20260902064514 76 340 0.0 0.0 0.00 0.00 0.00 88 1016.5
20260902063012 76 340 0.0 0.0 0.00 0.00 0.00 89 1016.5
20260902061520 75 340 0.0 0.0 0.00 0.00 0.00 90 1016.6
20260902060010 74 340 0.0 0.0 0.00 0.00 0.00 91 1016.6
20260902054509 75 340 0.0 0.0 0.00 0.00 0.00 90 1016.5
20260902053009 75 340 0.0 0.0 0.00 0.00 0.00 89 1016.4
20260902051509 75 340 0.0 0.0 0.00 0.00 0.00 89 1016.4
20260902050010 76 340 0.0 0.0 0.00 0.00 0.00 88 1016.5
20260902044508 76 340 0.0 0.0 0.00 0.00 0.00 88 1016.5
20260902043007 76 340 0.0 0.0 0.00 0.00 0.00 87 1016.4
20260902041508 77 340 0.0 0.0 0.00 0.00 0.00 86 1016.2
20260902040008 77 340 0.0 0.0 0.00 0.00 0.00 86 1016.2
20260902034507 77 340 0.0 0.0 0.00 0.00 0.00 85 1016.0
20260902033010 77 340 0.0 0.0 0.00 0.00 0.00 84 1015.7
20260902031506 78 340 0.0 0.0 0.00 0.00 0.00 84 1015.7
20260902030006 78 340 0.0 0.0 0.00 0.00 0.00 83 1015.8
20260902024506 79 340 0.0 0.0 0.00 0.00 0.00 83 1015.7
20260902023006 79 340 0.0 0.0 0.00 0.00 0.00 82 1015.8
20260902021512 79 340 0.0 0.0 0.00 0.00 0.00 82 1015.8
20260902020006 79 340 0.0 0.0 0.00 0.00 0.00 81 1015.7
20260902014504 79 340 0.0 0.0 0.00 0.00 0.00 81 1015.6
20260902013004 80 340 0.0 0.0 0.00 0.00 0.00 83 1015.3
20260902011505 80 340 0.0 0.0 0.00 0.00 0.00 82 1015.1
20260902010010 81 340 0.0 0.0 0.00 0.00 0.00 81 1014.9
20260902004512 82 340 0.0 0.0 0.00 0.00 0.00 79 1014.8
20260902003004 83 340 0.0 0.0 0.00 0.00 0.00 78 1014.6
20260902001503 83 340 0.0 0.0 0.00 0.00 0.00 78 1014.6
20260902000003 84 340 0.0 0.0 0.00 0.00 0.00 79 1014.6
20260901234502 85 340 0.0 0.0 0.00 0.00 0.00 77 1014.7
20260901233002 86 340 0.0 0.0 0.00 0.00 0.00 75 1014.6
20260901231502 87 340 0.0 0.0 0.00 0.00 0.00 71 1014.6
20260901230101 88 340 0.0 0.0 0.00 0.00 0.00 67 1014.7
20260901224601 89 340 0.0 0.0 0.00 0.00 0.00 65 1014.9
20260901223059 90 340 0.0 0.0 0.00 0.00 0.00 63 1014.9
20260901221600 91 340 0.0 0.0 0.00 0.00 0.00 62 1015.0
20260901214559 92 340 0.0 0.0 0.00 0.00 0.00 61 1015.1
20260901213058 92 340 0.0 0.0 0.00 0.00 0.00 55 1015.2
20260901211559 93 340 0.0 0.0 0.00 0.00 0.00 60 1015.1
20260901210056 94 340 0.0 0.0 0.00 0.00 0.00 56 1015.2
20260901204555 95 340 0.0 0.0 0.00 0.00 0.00 51 1015.4
20260901203055 97 340 0.0 0.0 0.00 0.00 0.00 51 1015.3
20260901201553 97 340 0.0 0.0 0.00 0.00 0.00 51 1015.5
20260901200106 96 340 0.0 0.0 0.00 0.00 0.00 52 1015.7
20260901194651 96 340 0.0 0.0 0.00 0.00 0.00 53 1015.9
20260901193101 97 340 0.0 0.0 0.00 0.00 0.00 49 1015.9
20260901191549 96 340 0.0 0.0 0.00 0.00 0.00 47 1015.9
20260901190054 98 340 0.0 0.0 0.00 0.00 0.00 49 1016.3
20260901184552 99 340 0.0 0.0 0.00 0.00 0.00 46 1016.3
20260901183044 100 340 0.0 0.0 0.00 0.00 0.00 46 1016.4
20260901181549 99 340 0.0 0.0 0.00 0.00 0.00 45 1016.5
20260901180042 98 340 0.0 0.0 0.00 0.00 0.00 48 1016.6
20260901174542 97 340 0.0 0.0 0.00 0.00 0.00 52 1016.3
20260901173039 98 340 0.0 0.0 0.00 0.00 0.00 44 1016.3
20260901171550 98 340 0.0 0.0 0.00 0.00 0.00 49 1016.3
20260901170033 97 340 0.0 0.0 0.00 0.00 0.00 49 1016.5
20260901164532 97 340 0.0 0.0 0.00 0.00 0.00 49 1016.7
20260901163033 96 340 0.0 0.0 0.00 0.00 0.00 53 1016.9
20260901161527 95 340 0.0 0.0 0.00 0.00 0.00 53 1017.2
20260901160024 94 192 0.0 0.0 0.00 0.00 0.00 55 1017.3
20260901154520 94 192 0.0 0.0 0.00 0.00 0.00 61 1017.4
20260901153018 93 192 0.0 0.0 0.00 0.00 0.00 60 1017.6
20260901151531 91 192 0.0 0.0 0.00 0.00 0.00 63 1017.8
20260901150026 90 192 0.0 0.0 0.00 0.00 0.00 65 1017.8
20260901144521 88 321 0.0 0.0 0.00 0.00 0.00 69 1017.8
20260901143013 86 317 0.0 0.0 0.00 0.00 0.00 75 1017.8
20260901141600 84 317 0.0 0.0 0.00 0.00 0.00 80 1017.8
20260901140107 83 317 0.0 0.0 0.00 0.00 0.00 81 1017.8
20260901134554 81 317 0.0 0.0 0.00 0.00 0.00 85 1017.8
20260901133049 78 317 0.0 0.0 0.00 0.00 0.00 89 1017.9
20260901131545 77 317 0.0 0.0 0.00 0.00 0.00 94 1017.9
20260901130042 75 317 0.0 0.0 0.00 0.00 0.00 96 1018.1
20260901124538 74 317 0.0 0.0 0.00 0.00 0.00 96 1018.1
20260901123135 73 317 0.0 0.0 0.00 0.00 0.00 96 1018.0
20260901121552 72 317 0.0 0.0 0.00 0.00 0.00 96 1018.0
20260901120031 72 317 0.0 0.0 0.00 0.00 0.00 96 1018.1
20260901114530 71 317 0.0 0.0 0.00 0.00 0.00 95 1017.9
20260901113032 71 317 0.0 0.0 0.00 0.00 0.00 95 1017.9
20260901111530 71 317 0.0 0.0 0.00 0.00 0.00 95 1017.8
20260901110034 71 317 0.0 0.0 0.00 0.00 0.00 95 1017.6
20260901104532 71 317 0.0 0.0 0.00 0.00 0.00 95 1017.4
20260901103029 71 317 0.0 0.0 0.00 0.00 0.00 95 1017.1
20260901101529 71 317 0.0 0.0 0.00 0.00 0.00 95 1017.2
20260901100026 71 317 0.0 0.0 0.00 0.00 0.00 95 1017.4
20260901094526 71 317 0.0 0.0 0.00 0.00 0.00 95 1017.5
20260901093024 71 317 0.0 0.0 0.00 0.00 0.00 95 1017.4
20260901091524 72 317 0.0 0.0 0.00 0.00 0.00 95 1017.3
20260901090023 72 317 0.0 0.0 0.00 0.00 0.00 95 1017.4
20260901084522 72 317 0.0 0.0 0.00 0.00 0.00 95 1017.5
20260901083026 72 317 0.0 0.0 0.00 0.00 0.00 95 1017.5
20260901081522 72 317 0.0 0.0 0.00 0.00 0.00 95 1017.5
20260901080022 72 317 0.0 0.0 0.00 0.00 0.00 95 1017.4